Regional Weather Roundup
Issued by NWS San Diego, CA

Home | Current Version | Previous Version | Text Only | Print | Product List | Glossary On
Versions: 1 2 3 4 5 6 7 8 9 10 11 12 13 14 15 16 17 18 19 20 21 22 23 24 25 26 27
000
ASUS46 KSGX 191611
RWRSGX

SAN DIEGO HOURLY WEATHER ROUNDUP
NATIONAL WEATHER SERVICE SAN DIEGO CA
800 AM PST MON FEB 19 2018

NOTE: "FAIR" INDICATES FEW OR NO CLOUDS BELOW 12,000 FEET WITH NO
SIGNIFICANT WEATHER AND/OR OBSTRUCTIONS TO VISIBILITY.

CAZ042-043-060-061-PZZ750-775-191700-

GREATER SAN DIEGO AREA

CITY           SKY/WX    TMP DP  RH WIND       PRES   REMARKS
SAN DIEGO AP   PTSUNNY   56  35  45 W17G29    29.96R
NATIONAL CITY    N/A     55  40  56 N6        29.96R
CHULA VISTA      N/A     55  40  56 W12       29.85R
IMPERIAL BEACH   N/A     58  36  43 W21G31    29.96R
BROWN FIELD    PTSUNNY   54  38  54 W10G24    29.94R
MIRAMAR MCAS   PTSUNNY   58  36  43 W16G25    29.92R
MONTGOMERY FLD PTSUNNY   54  34  46 W16       29.93R
GILLESPIE FLD  PTSUNNY   54  36  50 SW7       29.93R

$$

NORTH SAN DIEGO COUNTY

CITY           SKY/WX    TMP DP  RH WIND       PRES   REMARKS
CAMP PENDLETON SUNNY     55  30  38 W8G21     29.90R
OCEANSIDE AP   SUNNY     56  33  42 W13G20    29.90R
OCEANSIDE HBR    N/A     55  34  45 NW6       29.93R
VISTA            N/A     52  39  60 CALM      29.88R
CARLSBAD       MOSUNNY   54  33  45 W8        29.90R
DEL MAR          N/A     53  40  60 CALM      29.94R
LA JOLLA SCRIP   N/A     54  39  56 NW10      29.93R
FALLBROOK        N/A     51  42  71 SW1       29.90R
ESCONDIDO        N/A     52  40  62 SW8       29.91R
SAN MARCOS       N/A     52  38  60 W12       29.94R
POWAY            N/A     51  39  62 CALM      29.92R

$$

EAST SAN DIEGO COUNTY

CITY           SKY/WX    TMP DP  RH WIND       PRES   REMARKS
RAMONA         CLOUDY    49  40  71 W16G24    29.90R
SANTEE LAKES     N/A     54  39  57 SW8       29.91R
LA MESA          N/A     51  36  55 SW5       29.86R
JAMUL            N/A     50  39  65 CALM      29.93R
CAMPO            N/A     41  35  79 W24G35    29.82R

$$

ORANGE COUNTY AND THE LOS ANGELES BASIN

CITY           SKY/WX    TMP DP  RH WIND       PRES   REMARKS
JOHN WAYNE AP  MOSUNNY   52  20  28 NW7       29.91R
LAKE FOREST FR   N/A     47  25  41 W1        29.78R
HUNTINGTON BCH   N/A     52  26  36 NW5       29.93R
LOS ALAMITOS   FAIR      52  20  28 NW14      29.91R
FULLERTON      MOSUNNY   53  18  25 W12       29.90R
LONG BEACH     SUNNY     53  21  28 NW17      29.92R
L.A. AP        MOSUNNY   50  22  33 N8G18     29.93R
L.A. DOWNTOWN  SUNNY     50  20  30 VRB6      29.92R

$$

THE INLAND EMPIRE

CITY           SKY/WX    TMP DP  RH WIND       PRES   REMARKS
CORONA         SUNNY     51  30  44 SW10      29.88R
CHINO          MOSUNNY   51  32  48 W16       29.87R
ONTARIO        MOSUNNY   48  36  63 W10       29.84R
SAN BERNARDINO PTSUNNY   48  39  71 NW3       29.85R
RIVERSIDE AP   MOSUNNY   50  42  74 W13       29.85R
MORENO VALLEY    N/A     45  44  94 W6        27.95R
MARCH ARB      MOSUNNY   47  40  76 W8        29.84R
HORSETHIEF CYN   N/A     49  20  31 NE5       29.85R
PERRIS           N/A     46  41  84 SW2       29.79R
HEMET EAST       N/A     43  33  68 S1        29.87S
FRENCH VALLEY  PTSUNNY   48  37  66 SW7       29.86R
TEMECULA         N/A     48  42  80 SW10      29.93R

$$

SAN BERNARDINO AND RIVERSIDE COUNTY MOUNTAINS

CITY           SKY/WX    TMP DP  RH WIND       PRES   REMARKS
BIG BEAR AP    SNOW      19  14  79 W23G36    29.69R VSB 1/2 WCI   2
ANGELUS OAKS     N/A     27  24  89 CALM      29.70R

$$

SOUTHERN DESERT INCLUDING THE COACHELLA VALLEY

CITY           SKY/WX    TMP DP  RH WIND       PRES   REMARKS
PALM SPRINGS   MOSUNNY   59  24  26 SW10G20   29.73R
THOUSAND PALMS   N/A     57  27  31 SW6       29.71R
PALM DESERT      N/A     58  29  33 N13         N/A
THERMAL        PTSUNNY   61  29  29 W18G31    29.71R HAZE
BLYTHE         MOSUNNY   57  34  41 SW15      29.76R
IMPERIAL AP    SUNNY     58  34  40 W33G41    29.78R
EL CENTRO NAS  LGT RAIN  58  32  37 SW22G31   29.81R
YUMA AZ        SUNNY     56  40  55 NW9       29.78R
MEXICALI       SUNNY     57  34  41 W22       29.77S

$$

UPPER DESERT

CITY           SKY/WX    TMP DP  RH WIND       PRES   REMARKS
VICTORVILLE AP SUNNY     36  18  48 W20G31    29.84R WCI  25
HESPERIA         N/A     36  16  44 NE9       29.90R WCI  29
APPLE VALLEY     N/A     37  19  48 N24       29.89R WCI  25
PALMDALE       SUNNY     36  21  54 W18G28    29.88R WCI  26
LANCASTER      SUNNY     36  24  62 W18       29.89R WCI  26
EDWARDS AFB    SUNNY     37  17  44 W20G26    29.85R WCI  27
DAGGETT        SUNNY     40  21  46 SW31G41   29.83R WCI  28
29 PALMS N     PTSUNNY   42  15  33 W31G40    29.86R
NEEDLES        PTSUNNY   54  15  21 W32G41    29.73R

$$

REGIONAL REPORTS

CITY           SKY/WX    TMP DP  RH WIND       PRES   REMARKS
SANTA BARBARA  SUNNY     49  21  33 NW12G21   29.95R
SANDBERG       CLOUDY    25  21  85 N18G25    29.82R WCI  11
LAS VEGAS NV   PTSUNNY   45  18  34 NW17G26   29.67R
PHOENIX AZ     PTSUNNY   61  49  64 S10       29.72R
TIJUANA        PTSUNNY   54  34  47 W15       29.97
ENSENADA NW      N/A     55  32  41 CALM      29.92R

$$

OFFSHORE ISLANDS

CITY           SKY/WX    TMP DP  RH WIND       PRES   REMARKS
CATALINA ARPT  SUNNY     46  33  60 NW17G32   29.91R
SAN NICOLAS IS MOSUNNY   52  40  63 NW25G38   29.98R

$$

MARINE AND OFFSHORE BUOY REPORTS

STATION/POSITION SKY/WX   TEMP    WIND        PRES    VSBY  SWELL
                          AIR SEA DIR/SP/G                  HT/PER/DIR
                          (F)     (DEG/KT/KT) (MB)    (MI)  (FT/S/D)
TANNER BANKS               54 60              1015.7R
S CLEMENTE BASIN           55 62  300/ 25/ 29 1014.3R         5/320/14
SAN NICOLAS IS.               58                N/A           3/300/11
SO. S. ROSA ISLA           51 58  320/ 23/ 29 1015.4R         8/310/10
W. S. BARBARA CH           51 57  310/ 21/ 29 1015.5R         7/280/13
M. S. BARBARA CH           49 57  310/ 19/ 25 1016.0R         5/260/ 8
S. MONICA BASIN               60  300/ 25/ 31 1013.8R         2/260/13
S PEDRO CHANNEL               60                N/A           2/230/13
CMP PENDLETON NS              60                N/A           2/260/11
OCEANSIDE OFFSHR              60                N/A           2/260/11
TORREY PINES OTR              61                N/A           2/270/11
SAN DIEGO BAY                 65              1014.4R
POINT LOMA SOUTH              61                N/A           3/290/11

$$





USA.gov is the U.S. government's official web portal to all federal, state and local government web resources and services.